STARLINK-32415, 61861

Orbit data source: Space-Track

STARLINK-32415, 61861 is a payload satellite owned by SpaceX/Seattle (US) in LEO that was launched on Thu, 07 Nov 2024 UTC via an FALCON 9 launch vehicle from the Air Force Eastern Test Range (AFETR). Payload-class satellites include a variety of spacecraft equipped with specific instruments for various scientific and technological missions. These include communications satellites like Starlink; space stations such as the ISS; scientific satellites like the Hubble; Earth observation satellites from companies like Planet Labs, Umbra, and HawkEye 360; GPS; miniature CubeSats for education and research; and military/defense satellites.

Loading next visibility...
Identifier
61861, 2024-202S
Orbit
LEO
Country
Flag of USUS
Related business
Manufacturer
SpaceX/Seattle
Mission
Operational Commercial Communications
Bus & Motor
STARLINK V2M, Unknown motor
Mass
730 kg wet, ~700 kg dry
Launch date (UTC)
2024-11-07 (1 year ago)
Launch vehicle
FALCON 9
Launch site
Air Force Eastern Test Range (AFETR)
Object type
Payload
Rocket body
Debris
Shape & HBR
Box + 2 Pan, 17.7 m
Radar Cross Section
33.884 m², Large (>1 m²)

Expand to show TLE details & history
Last TLE update: 15 hours ago

TLE from 15 hours ago
0 STARLINK-32415
1 61861U 24202S   26124.90459987  .00000226  00000-0  17752-4 0  9994
2 61861  42.9998 280.6356 0001464 267.8070  92.2614 15.27576340 83926
Epoch: 2026-05-04T21:42Z
TLE epoch observation values (Epoch: 2026-05-04T21:42:37.428Z)
Latitude
-0.00003°
Longitude
92.19252°
Altitude
482.875 km
Speed
7.626 km/s
True Right ascension
18h 42m 32s
True Declination
0° 00' 00"
Sunlit
Object was in full shadow at epoch
Visualization orbit readout
Latitude
Unknown
Longitude
Unknown
Altitude
Unknown
Speed
Unknown
Apparent Right ascension
Unknown
Apparent Declination
Unknown
Sunlit
N/A
Visualization observer readout
Local Sidereal Time
20:49:10
Azimuth
Unknown
Elevation
Unknown
Doppler factor
Unknown
Orbital elements
Apogee altitude
486.01 km
Perigee altitude
484 km
Semi-major axis
6,863.142 km
Eccentricity
0.00015
Inclination
42.9998°
RAAN
280.6356°
Arg. of periapsis
267.807°
True anomaly
92.27816°
Mean anomaly
92.2614°
Eccentric anomaly
92.26978°
Mean motion
3.81732 °/min
Orbital period
94.31 mins
BSTAR
0.000017752
Loading maneuver chart data...
Computing Atmospheric mass density...
Loading historical data...
Loading historical data...
Loading historical data...
Loading historical data...
Loading historical data...
Loading historical data...
Loading historical data...

Documentation

Showing up to 5 results
|